SJ-23

导读

实践二十三号(SJ-23)是中国于北京时间2023年1月9日凌晨6时,在文昌航天发射场通过长征七号改运载火箭成功发射的国产卫星,本次任务采用“一箭三星”方式,同时搭载发射试验二十二号A/B星,三颗卫星均顺利进入预定轨道。实践二十三号主要用于开展空间科学试验、航天技术验证研究,此次任务是长征系列运载火箭第459次飞行,也是中国航天2023年发射任务的“开门红”,标志着中国航天技术持续推进创新验证。

基本信息
目录编号:
55131
目录名称:
SJ-23
国际标识:
2023-002A
轨道中心:
EARTH
卫星名称:
SJ-23
卫星全名:
--
卫星状态:
在轨 (已飞行1253 天)
发射日期:
2023-01-08 UTC
国别 :
中国 (CN)
星等 :
--
轨道信息
数据来源 国际轨道数据 AOE轨道数据
星历时间 2026-06-15T01:25:29+0800
4小时前
查看轨道信息
2026-06-13T22:00:00+0800
1天前
查看轨道信息
半长轴 42216.333km 42216.22km
偏心率 0.0003801 0.0003718
轨道倾角 3.711° 3.708°
近地点辐角 271.608° 272.149°
升交点赤经 78.344° 78.358°
平近点角 324.179° 271.882°
近地点 35822.149km 35822.387km
远地点 35854.243km 35853.779km
周期 1438.734分钟 1438.728分钟
每日圈数 1.00088 1.000884
详细信息
使用方式:
暂无
2D轨道图
3D轨道图
轨道高度分析图
轨道倾角分析图
轨道综合分析图
查看轨道综合分析图